N1YZ Weather Reports


time (UTC)temp
C
wind
direction
speed
KPH
gust
KPH
rain 1hr
cm
rain 24hr
cm
rain mn
cm
humidity
%
barometer
mb
20260508161510 18 12 0.0 0.0 0.00 0.00 0.00 74 1036.3
20260508161008 18 18 0.0 0.0 0.00 0.00 0.00 73 1036.6
20260508160506 18 31 0.0 0.0 0.00 0.00 0.00 70 1036.8
20260508160003 18 344 0.0 0.0 0.00 0.00 0.00 74 1036.7
20260508155500 18 346 1.6 1.6 0.00 0.00 0.00 76 1036.7
20260508154956 18 8 0.0 0.0 0.00 0.00 0.00 77 1036.9
20260508154454 17 14 0.0 0.0 0.00 0.00 0.00 76 1037.3
20260508153950 18 347 1.6 1.6 0.00 0.00 0.00 76 1037.2
20260508153447 18 357 0.0 0.0 0.00 0.00 0.00 78 1036.9
20260508152943 17 17 0.0 0.0 0.00 0.00 0.00 75 1037.1
20260508152440 17 24 0.0 0.0 0.00 0.00 0.00 79 1036.9
20260508151936 17 22 0.0 0.0 0.00 0.00 0.00 79 1036.9
20260508151433 17 13 0.0 0.0 0.00 0.00 0.00 77 1036.8
20260508150930 17 2 0.0 0.0 0.00 0.00 0.00 80 1036.7
20260508150426 17 15 0.0 0.0 0.00 0.00 0.00 79 1037.0
20260508145922 17 11 0.0 0.0 0.00 0.00 0.00 82 1037.1
20260508145419 17 11 0.0 0.0 0.00 0.00 0.00 81 1036.9
20260508144916 17 34 0.0 0.0 0.00 0.00 0.00 81 1037.0
20260508144414 17 14 0.0 0.0 0.00 0.00 0.00 80 1037.0
20260508143911 17 29 0.0 0.0 0.00 0.00 0.00 80 1037.1
20260508143408 17 164 1.6 1.6 0.00 0.00 0.00 78 1037.0
20260508142904 17 105 0.0 0.0 0.00 0.00 0.00 80 1037.3
20260508142402 16 174 1.6 3.2 0.00 0.00 0.00 81 1037.0
20260508141857 16 14 0.0 0.0 0.00 0.00 0.00 79 1037.3
20260508141355 16 168 1.6 3.2 0.00 0.00 0.00 80 1037.1
20260508140852 16 26 0.0 0.0 0.00 0.00 0.00 84 1037.2
20260508140350 16 174 1.6 1.6 0.00 0.00 0.00 85 1037.4
20260508135845 16 358 0.0 0.0 0.00 0.00 0.00 87 1037.3
20260508135342 15 199 0.0 0.0 0.00 0.00 0.00 86 1037.9
20260508134838 15 176 0.0 0.0 0.00 0.00 0.00 86 1037.8
20260508134334 15 175 0.0 0.0 0.00 0.00 0.00 87 1037.5
20260508133831 15 179 0.0 0.0 0.00 0.00 0.00 87 1037.5
20260508133329 15 136 0.0 0.0 0.00 0.00 0.00 87 1037.7
20260508132826 15 43 0.0 0.0 0.00 0.00 0.00 86 1037.7
20260508132324 14 42 0.0 0.0 0.00 0.00 0.00 89 1037.6
20260508131820 14 42 0.0 0.0 0.00 0.00 0.00 89 1037.5
20260508131316 14 43 0.0 0.0 0.00 0.00 0.00 90 1037.6
20260508130813 13 44 0.0 0.0 0.00 0.00 0.00 92 1037.5
20260508130310 13 58 0.0 0.0 0.00 0.00 0.00 91 1037.6
20260508125806 13 71 0.0 0.0 0.00 0.00 0.00 91 1037.1
20260508125305 13 53 0.0 0.0 0.00 0.00 0.00 92 1037.4
20260508124800 13 53 0.0 0.0 0.00 0.00 0.00 92 1037.0
20260508124257 13 55 0.0 0.0 0.00 0.00 0.00 92 1037.1
20260508123755 13 23 0.0 0.0 0.00 0.00 0.00 93 1037.1
20260508123252 12 65 0.0 0.0 0.00 0.00 0.00 94 1037.2
20260508122743 12 40 0.0 0.0 0.00 0.00 0.00 95 1037.2
20260508122240 12 22 0.0 0.0 0.00 0.00 0.00 95 1036.9
20260508121737 12 37 0.0 0.0 0.00 0.00 0.00 96 1036.8
20260508121236 12 47 0.0 0.0 0.00 0.00 0.00 96 1036.6
20260508120733 12 112 0.0 0.0 0.00 0.00 0.00 97 1036.7
20260508120231 12 72 0.0 0.0 0.00 0.00 0.00 97 1036.6
20260508115728 12 89 0.0 0.0 0.00 0.00 0.00 97 1036.9
20260508115226 12 73 0.0 0.0 0.00 0.00 0.00 97 1036.7
20260508114722 12 11 0.0 0.0 0.00 0.00 0.00 98 1036.4
20260508114219 12 299 0.0 0.0 0.00 0.00 0.00 98 1036.3
20260508113715 12 330 0.0 0.0 0.00 0.00 0.00 98 1036.4
20260508113214 12 352 0.0 0.0 0.00 0.00 0.00 98 1036.3
20260508112709 12 351 0.0 0.0 0.00 0.00 0.00 98 1036.4
20260508112207 12 4 0.0 0.0 0.00 0.00 0.00 98 1036.4
20260508111703 12 5 0.0 0.0 0.00 0.00 0.00 98 1036.1
20260508111200 12 5 0.0 0.0 0.00 0.00 0.00 98 1036.1
20260508110657 12 5 0.0 0.0 0.00 0.00 0.00 98 1036.0
20260508110154 12 5 0.0 0.0 0.00 0.00 0.00 98 1035.6
20260508105649 12 5 0.0 0.0 0.00 0.00 0.00 98 1035.7
20260508105146 12 5 0.0 0.0 0.00 0.00 0.00 98 1035.8
20260508104644 12 5 0.0 0.0 0.00 0.00 0.00 98 1035.9
20260508104140 12 5 0.0 0.0 0.00 0.00 0.00 98 1035.9
20260508103637 12 5 0.0 0.0 0.00 0.00 0.00 98 1035.6
20260508103135 12 5 0.0 0.0 0.00 0.00 0.00 98 1035.7
20260508102632 12 5 0.0 0.0 0.00 0.00 0.00 98 1035.7
20260508102130 12 4 0.0 0.0 0.00 0.00 0.00 98 1035.6
20260508101621 12 4 0.0 0.0 0.00 0.00 0.00 98 1035.8
20260508101118 12 4 0.0 0.0 0.00 0.00 0.00 98 1035.5
20260508100616 12 4 0.0 0.0 0.00 0.00 0.00 98 1035.6
20260508100114 12 4 0.0 0.0 0.00 0.00 0.00 98 1035.7
20260508095610 12 4 0.0 0.0 0.00 0.00 0.00 98 1035.5
20260508095107 12 4 0.0 0.0 0.00 0.00 0.00 98 1035.0
20260508094604 12 4 0.0 0.0 0.00 0.00 0.00 98 1035.3
20260508094100 12 4 0.0 0.0 0.00 0.00 0.00 98 1034.8
20260508093558 12 4 0.0 0.0 0.00 0.00 0.00 98 1035.0
20260508093056 12 4 0.0 0.0 0.00 0.00 0.00 98 1034.6
20260508092552 12 4 0.0 0.0 0.00 0.00 0.00 98 1034.6
20260508092052 12 4 0.0 0.0 0.00 0.00 0.00 99 1034.4
20260508091548 12 3 0.0 0.0 0.00 0.00 0.00 99 1034.2
20260508091045 12 3 0.0 0.0 0.00 0.00 0.00 99 1034.1
20260508090543 12 3 0.0 0.0 0.00 0.00 0.00 99 1034.3
20260508090039 12 3 0.0 0.0 0.00 0.00 0.00 99 1034.2
20260508085536 12 3 0.0 0.0 0.00 0.00 0.00 99 1034.3
20260508085033 12 3 0.0 0.0 0.00 0.00 0.00 99 1034.2
20260508084530 12 3 0.0 0.0 0.00 0.00 0.00 99 1034.1
20260508084027 12 3 0.0 0.0 0.00 0.00 0.00 99 1034.1
20260508083524 12 3 0.0 0.0 0.00 0.00 0.00 99 1033.9
20260508083021 12 3 0.0 0.0 0.00 0.00 0.00 99 1033.9
20260508082517 12 3 0.0 0.0 0.00 0.00 0.00 99 1034.2
20260508082014 12 1 0.0 0.0 0.00 0.00 0.00 99 1034.2
20260508081512 12 1 0.0 0.0 0.00 0.00 0.00 98 1033.9
20260508081007 12 1 0.0 0.0 0.00 0.00 0.00 98 1034.1
20260508080506 12 1 0.0 0.0 0.00 0.00 0.00 98 1033.7
20260508080002 12 1 0.0 0.0 0.00 0.00 0.00 98 1034.2
20260508075459 12 1 0.0 0.0 0.00 0.00 0.00 98 1034.1
20260508074957 12 1 0.0 0.0 0.00 0.00 0.00 98 1034.2
20260508074455 13 1 0.0 0.0 0.00 0.00 0.00 98 1034.2
20260508073951 13 1 0.0 0.0 0.00 0.00 0.00 98 1034.4
20260508073448 13 1 0.0 0.0 0.00 0.00 0.00 98 1034.4
20260508072945 13 1 0.0 0.0 0.00 0.00 0.00 98 1034.5
20260508072442 13 1 0.0 0.0 0.00 0.00 0.00 97 1034.4
20260508071939 13 1 0.0 0.0 0.00 0.00 0.00 97 1034.7
20260508071437 13 1 0.0 0.0 0.00 0.00 0.00 97 1034.8
20260508070934 13 1 0.0 0.0 0.00 0.00 0.00 97 1034.7
20260508070432 13 1 0.0 0.0 0.00 0.00 0.00 96 1034.6
20260508065930 13 1 0.0 0.0 0.00 0.00 0.00 96 1034.6
20260508065428 13 1 0.0 0.0 0.00 0.00 0.00 96 1034.8
20260508064925 13 1 0.0 0.0 0.00 0.00 0.00 96 1034.6
20260508064422 13 1 0.0 0.0 0.00 0.00 0.00 96 1034.6
20260508063920 13 1 0.0 0.0 0.00 0.00 0.00 96 1034.3
20260508063418 13 1 0.0 0.0 0.00 0.00 0.00 96 1035.0
20260508062915 13 1 0.0 0.0 0.00 0.00 0.00 96 1034.8
20260508062413 13 1 0.0 0.0 0.00 0.00 0.00 96 1034.6
20260508061909 13 1 0.0 0.0 0.00 0.00 0.00 96 1034.7
20260508061407 13 1 0.0 0.0 0.00 0.00 0.00 96 1034.8
20260508060903 13 1 0.0 0.0 0.00 0.00 0.00 96 1034.8
20260508060401 13 1 0.0 0.0 0.00 0.00 0.00 96 1035.0
20260508055901 13 1 0.0 0.0 0.00 0.00 0.00 95 1034.6
20260508055359 13 1 0.0 0.0 0.00 0.00 0.00 95 1035.0
20260508054855 13 1 0.0 0.0 0.00 0.00 0.00 95 1034.8
20260508054352 13 1 0.0 0.0 0.00 0.00 0.00 95 1035.1
20260508053849 13 1 0.0 0.0 0.00 0.00 0.00 94 1035.1
20260508053347 13 1 0.0 0.0 0.00 0.00 0.00 93 1035.3
20260508052844 13 1 0.0 0.0 0.00 0.00 0.00 93 1035.5
20260508052342 13 1 0.0 0.0 0.00 0.00 0.00 93 1035.6
20260508051837 14 1 0.0 0.0 0.00 0.00 0.00 94 1035.4
20260508051332 14 1 0.0 0.0 0.00 0.00 0.00 94 1035.3
20260508050829 14 1 0.0 0.0 0.00 0.00 0.00 94 1035.2
20260508050327 14 1 0.0 0.0 0.00 0.00 0.00 93 1035.3
20260508045822 14 1 0.0 0.0 0.00 0.94 0.94 93 1035.3
20260508045320 14 1 0.0 0.0 0.00 0.94 0.94 93 1035.2
20260508044818 14 1 0.0 0.0 0.00 0.94 0.94 93 1035.3
20260508044314 14 1 0.0 0.0 0.00 0.94 0.94 93 1035.6
20260508043810 14 1 0.0 0.0 0.00 0.94 0.94 93 1035.4
20260508043308 14 1 0.0 0.0 0.00 0.94 0.94 92 1035.5
20260508042804 14 1 0.0 0.0 0.00 0.94 0.94 92 1035.6
20260508042306 14 1 0.0 0.0 0.00 0.94 0.94 92 1035.3
20260508041758 15 1 0.0 0.0 0.00 0.94 0.94 92 1035.7
20260508041255 15 1 0.0 0.0 0.00 0.94 0.94 91 1035.5
20260508040751 15 1 0.0 0.0 0.00 0.94 0.94 91 1035.1
20260508040248 15 1 0.0 0.0 0.00 0.94 0.94 91 1035.3
20260508035746 15 1 0.0 0.0 0.00 0.94 0.94 91 1035.1
20260508035243 14 1 0.0 0.0 0.00 0.94 0.94 91 1035.4
20260508034739 14 1 0.0 0.0 0.00 0.94 0.94 91 1035.4
20260508034237 15 1 0.0 0.0 0.00 0.94 0.94 91 1035.5
20260508033734 15 1 0.0 0.0 0.00 0.94 0.94 91 1035.4
20260508033232 15 1 0.0 0.0 0.00 0.94 0.94 90 1035.4
20260508032729 15 1 0.0 0.0 0.00 0.94 0.94 88 1035.5
20260508032226 15 1 0.0 0.0 0.00 0.94 0.94 88 1035.1
20260508031723 15 1 0.0 0.0 0.00 0.94 0.94 88 1035.2
20260508031219 15 1 0.0 0.0 0.00 0.94 0.94 89 1035.4
20260508030716 15 0 0.0 0.0 0.00 0.94 0.94 92 1035.3
20260508030213 15 2 0.0 0.0 0.00 0.94 0.94 92 1035.1
20260508025710 15 2 0.0 0.0 0.00 0.94 0.94 91 1035.3
20260508025207 15 3 0.0 0.0 0.00 0.94 0.94 91 1035.3
20260508024702 15 3 0.0 0.0 0.00 0.94 0.94 91 1035.1
20260508024200 15 3 0.0 0.0 0.00 0.94 0.94 92 1035.1
20260508023656 15 3 0.0 0.0 0.00 0.94 0.94 92 1035.0
20260508023154 15 3 0.0 0.0 0.00 0.94 0.94 92 1035.0
20260508022649 15 2 0.0 0.0 0.00 0.94 0.94 92 1034.8
20260508022147 15 2 0.0 0.0 0.00 0.94 0.94 92 1034.7
20260508021643 15 1 0.0 0.0 0.00 0.94 0.94 92 1034.7
20260508021138 15 1 0.0 0.0 0.00 0.94 0.94 93 1035.0
20260508020636 15 12 0.0 0.0 0.00 0.94 0.94 93 1034.8
20260508020134 15 12 0.0 0.0 0.00 0.94 0.94 92 1034.6
20260508015631 15 12 0.0 0.0 0.00 0.94 0.94 92 1034.8
20260508015128 15 12 0.0 0.0 0.00 0.94 0.94 92 1034.4
20260508014624 15 12 0.0 0.0 0.00 0.94 0.94 93 1034.4
20260508014121 15 12 0.0 0.0 0.00 0.94 0.94 93 1034.4
20260508013617 15 12 0.0 0.0 0.00 0.94 0.94 92 1034.4
20260508013114 16 13 0.0 0.0 0.00 0.94 0.94 92 1034.4
20260508012611 16 13 0.0 0.0 0.00 0.94 0.94 92 1034.5
20260508012108 16 13 0.0 0.0 0.00 0.94 0.94 91 1034.3
20260508011607 16 13 0.0 0.0 0.00 0.94 0.94 90 1034.2
20260508011104 16 13 0.0 0.0 0.00 0.94 0.94 89 1034.5
20260508010600 16 13 0.0 0.0 0.00 0.94 0.94 88 1034.6
20260508010058 16 12 0.0 0.0 0.00 0.94 0.94 89 1034.4
20260508005554 16 13 0.0 0.0 0.00 0.94 0.94 89 1034.5
20260508005051 16 13 0.0 0.0 0.00 0.94 0.94 89 1034.1
20260508004547 17 16 0.0 0.0 0.00 0.94 0.94 89 1034.2
20260508004044 17 16 0.0 0.0 0.00 0.94 0.94 89 1034.0
20260508003540 17 16 0.0 0.0 0.00 0.94 0.94 89 1034.2
20260508003038 17 16 0.0 0.0 0.00 0.94 0.94 89 1034.0
20260508002534 17 16 0.0 0.0 0.00 0.94 0.94 89 1034.2
20260508002031 18 16 0.0 0.0 0.00 0.94 0.94 88 1034.1
20260508001527 18 16 0.0 0.0 0.00 0.94 0.94 88 1034.0
20260508001023 18 16 0.0 0.0 0.00 0.94 0.94 87 1034.1
20260508000519 18 17 0.0 0.0 0.00 0.94 0.94 86 1034.0
20260508000017 18 18 0.0 0.0 0.00 0.94 0.94 85 1033.9
20260507235513 19 17 0.0 0.0 0.00 0.94 0.94 85 1033.8
20260507235011 19 17 0.0 0.0 0.00 0.94 0.94 84 1033.9
20260507234507 19 17 0.0 0.0 0.00 0.94 0.94 84 1033.5
20260507234004 19 17 0.0 0.0 0.00 0.94 0.94 84 1033.4
20260507233500 19 18 0.0 0.0 0.00 0.94 0.94 86 1033.8
20260507232959 20 17 0.0 0.0 0.00 0.94 0.94 86 1033.6
20260507232455 20 18 0.0 0.0 0.00 0.94 0.94 85 1033.4
20260507231953 20 34 0.0 0.0 0.00 0.94 0.94 82 1033.4
20260507231448 20 33 0.0 0.0 0.00 0.94 0.94 82 1033.4
20260507230946 20 22 0.0 0.0 0.00 0.94 0.94 82 1033.4
20260507230443 20 47 0.0 0.0 0.00 0.94 0.94 80 1033.4
20260507225938 20 46 0.0 0.0 0.00 0.94 0.94 82 1033.3
20260507225434 20 46 0.0 0.0 0.00 0.94 0.94 82 1033.3
20260507224931 20 11 0.0 0.0 0.00 0.94 0.94 83 1033.3
20260507224427 20 11 0.0 0.0 0.00 0.94 0.94 83 1033.5
20260507223924 20 10 0.0 0.0 0.00 0.94 0.94 84 1033.3
20260507223414 20 10 0.0 0.0 0.00 0.94 0.94 84 1033.1
20260507222911 20 43 0.0 0.0 0.00 0.94 0.94 79 1033.2
20260507222408 20 58 0.0 0.0 0.00 0.94 0.94 79 1033.0
20260507221905 20 47 0.0 0.0 0.00 0.94 0.94 77 1033.2
20260507221402 21 167 0.0 0.0 0.00 0.94 0.94 77 1033.5
20260507220857 21 61 0.0 0.0 0.00 0.94 0.94 75 1033.3
20260507220356 22 146 0.0 1.6 0.00 0.94 0.94 74 1033.1
20260507215852 21 126 0.0 0.0 0.00 0.94 0.94 72 1033.2
20260507215349 21 37 0.0 0.0 0.00 0.94 0.94 76 1033.2
20260507214846 21 112 0.0 0.0 0.00 0.94 0.94 76 1033.1
20260507214343 21 75 0.0 0.0 0.00 0.94 0.94 73 1033.2
20260507213838 21 15 0.0 0.0 0.00 0.94 0.94 78 1033.0
20260507213335 21 178 3.2 3.2 0.00 0.94 0.94 75 1033.0
20260507212832 21 21 0.0 0.0 0.00 0.94 0.94 78 1032.8
20260507212328 21 36 0.0 0.0 0.00 0.94 0.94 79 1033.1
20260507211825 20 116 0.0 0.0 0.00 0.94 0.94 76 1032.9
20260507211322 20 15 1.6 3.2 0.00 0.94 0.94 78 1032.9
20260507210818 21 47 0.0 0.0 0.00 0.94 0.94 81 1033.0
20260507210316 21 159 1.6 3.2 0.00 0.94 0.94 75 1032.6
20260507205811 21 15 0.0 0.0 0.00 0.94 0.94 80 1032.9
20260507205309 20 173 0.0 0.0 0.00 0.94 0.94 75 1032.7
20260507204805 21 41 0.0 0.0 0.00 0.94 0.94 76 1033.1
20260507204303 21 169 1.6 1.6 0.00 0.94 0.94 75 1033.0
20260507203800 21 49 0.0 0.0 0.00 0.94 0.94 78 1033.0
20260507203258 20 205 0.0 0.0 0.00 0.94 0.94 80 1033.2
20260507202754 20 208 0.0 0.0 0.00 0.94 0.94 80 1033.3
20260507202250 20 351 0.0 1.6 0.00 0.94 0.94 81 1033.4
20260507201745 21 59 0.0 0.0 0.00 0.94 0.94 77 1033.2
20260507201242 21 75 0.0 0.0 0.00 0.94 0.94 76 1033.3
20260507200738 21 36 0.0 0.0 0.00 0.94 0.94 78 1033.4
20260507200234 21 58 0.0 0.0 0.00 0.94 0.94 75 1033.4
20260507195730 22 7 0.0 0.0 0.00 0.94 0.94 76 1033.3
20260507195228 21 213 0.0 0.0 0.00 0.94 0.94 75 1033.3
20260507194725 20 14 0.0 0.0 0.00 0.94 0.94 79 1033.3
20260507194221 20 10 0.0 0.0 0.00 0.94 0.94 77 1033.7
20260507193717 20 91 0.0 0.0 0.00 0.94 0.94 78 1033.4
20260507193214 21 47 0.0 0.0 0.00 0.94 0.94 78 1033.6
20260507192710 20 166 0.0 0.0 0.00 0.94 0.94 76 1033.4
20260507192202 21 176 0.0 0.0 0.00 0.94 0.94 77 1033.6
20260507191657 20 39 0.0 0.0 0.00 0.94 0.94 81 1033.5
20260507191155 20 151 1.6 1.6 0.00 0.94 0.94 80 1033.6
20260507190652 20 354 0.0 0.0 0.00 0.94 0.94 78 1033.7
20260507190150 20 238 0.0 1.6 0.00 0.94 0.94 81 1033.4
20260507185648 20 12 0.0 0.0 0.00 0.94 0.94 87 1033.6
20260507185144 18 12 0.0 0.0 0.00 0.94 0.94 85 1033.7
20260507184642 18 353 0.0 0.0 0.00 0.94 0.94 88 1033.5
20260507184140 18 36 0.0 0.0 0.00 0.94 0.94 85 1033.6
20260507183636 18 47 0.0 0.0 0.00 0.94 0.94 89 1033.7
20260507183134 18 39 0.0 0.0 0.00 0.94 0.94 90 1033.9
20260507182630 17 36 0.0 0.0 0.00 0.94 0.94 91 1033.9
20260507182126 17 35 0.0 0.0 0.00 0.94 0.94 90 1034.2
20260507181623 17 135 0.0 0.0 0.00 0.94 0.94 91 1034.1
20260507181119 17 37 0.0 0.0 0.00 0.94 0.94 93 1034.1
20260507180615 17 43 0.0 0.0 0.00 0.94 0.94 94 1034.0
20260507180113 17 31 0.0 1.6 0.00 0.94 0.94 95 1034.1
20260507175608 17 2 0.0 0.0 0.00 0.94 0.94 95 1033.9
20260507175106 17 171 1.6 1.6 0.00 0.94 0.94 93 1034.0
20260507174603 16 79 0.0 0.0 0.00 0.94 0.94 94 1034.4
20260507174101 16 67 0.0 0.0 0.00 0.94 0.94 95 1034.3
20260507173558 16 24 0.0 0.0 0.00 0.94 0.94 94 1034.2
20260507173055 17 201 1.6 3.2 0.00 0.94 0.94 95 1034.5
20260507172550 16 45 0.0 0.0 0.00 0.94 0.94 97 1034.6
20260507172048 16 46 0.0 0.0 0.00 0.94 0.94 99 1034.6
20260507171543 16 92 0.0 0.0 0.00 0.94 0.94 99 1034.5
20260507171040 16 74 0.0 0.0 0.00 0.94 0.94 99 1034.5
20260507170537 15 98 0.0 0.0 0.00 0.94 0.94 99 1034.6
20260507170034 16 80 0.0 0.0 0.00 0.94 0.94 99 1034.6
20260507165530 16 50 0.0 0.0 0.00 0.94 0.94 99 1034.7
20260507165026 15 43 0.0 0.0 0.00 0.94 0.94 99 1034.7
20260507164523 15 128 0.0 1.6 0.00 0.94 0.94 99 1035.0
20260507164020 15 39 0.0 0.0 0.00 0.94 0.94 99 1034.8
20260507163517 15 77 0.0 0.0 0.00 0.94 0.94 99 1034.6
20260507163015 15 136 0.0 0.0 0.00 0.94 0.94 99 1034.6
20260507162509 15 89 0.0 0.0 0.00 0.94 0.94 99 1034.3
20260507162007 15 55 0.0 0.0 0.00 0.94 0.94 99 1034.4